Theta_e
318 319 322 324 326 328 327 327 325 323 326 324 318 321 319 318 321 319 319 319 317 316 315 316 316 316 318 317 316 316 315 316 317 326 329 318 319 319 316 318 324 327 327 327 327 326 322 316 312 317 322 323 324 325 329 333 333 333 334 332 330 327 326 325 324 327 328 329 332 333 334 334 333 333 334 335 334 334 333 332 333 332 331 331 330 331 331 331 330 329 325 323 320 318 318 317 316
317 318 323 325 327 329 326 326 331 331 329 321 318 321 316 318 320 319 323 320 318 315 315 315 314 314 314 314 314 315 316 316 316 319 318 317 319 317 317 316 317 322 325 327 327 324 321 316 311 313 319 322 323 324 326 330 333 333 333 333 333 331 331 329 326 326 324 324 326 328 331 332 333 334 334 334 336 335 333 333 333 333 333 332 331 330 330 331 331 330 329 327 325 321 318 318 318
317 320 322 324 327 327 328 327 329 332 330 324 324 324 317 318 320 322 322 317 315 314 315 314 313 313 312 313 314 316 316 315 317 317 316 317 317 317 318 317 316 317 319 320 319 318 316 314 313 312 314 319 322 323 324 326 329 332 333 333 334 333 333 332 331 330 326 323 322 322 323 327 331 333 333 333 335 336 334 332 331 331 330 331 331 331 330 330 331 330 328 327 328 327 321 317 317
317 322 322 325 326 326 337 338 332 333 329 324 323 325 322 321 323 321 316 314 314 314 315 314 314 313 313 314 313 314 314 314 317 316 315 315 316 317 317 317 317 316 315 315 314 314 314 314 314 313 313 315 318 321 325 325 325 327 331 333 334 334 333 333 333 333 331 329 326 324 322 324 327 331 331 329 331 333 333 331 329 327 326 327 329 330 330 330 330 330 328 327 328 331 328 322 316
319 322 321 325 326 324 335 332 330 332 324 324 322 322 329 327 323 318 314 314 314 314 315 313 313 312 312 312 312 313 313 313 315 314 312 312 314 315 315 316 316 316 315 314 314 314 314 314 314 314 314 314 315 317 322 324 324 324 327 330 331 332 332 332 333 333 332 332 331 330 328 326 326 327 328 326 327 329 331 332 331 328 327 327 327 328 329 330 329 329 328 328 328 330 332 329 322
320 323 322 323 323 319 325 323 322 325 321 327 324 320 328 324 318 315 313 313 313 314 314 313 313 312 311 310 310 311 312 312 312 312 310 310 312 312 313 313 314 315 314 314 314 314 314 314 314 314 314 313 314 314 317 320 322 324 325 327 328 330 331 331 331 331 331 331 332 331 330 329 327 326 327 328 327 326 327 327 328 329 329 328 327 327 328 328 328 328 328 328 329 329 331 332 329
320 322 322 322 322 319 326 327 322 324 317 319 323 321 320 315 313 313 313 313 314 314 314 313 312 312 311 310 310 309 311 311 310 310 310 310 310 310 311 311 311 312 312 312 312 312 312 312 312 312 313 312 312 313 313 315 317 320 323 326 328 329 330 331 330 330 330 330 331 331 331 331 330 329 329 330 329 327 324 322 321 323 326 327 326 327 328 327 326 328 328 328 328 328 331 332 332
320 321 321 325 330 327 330 327 321 324 317 312 317 318 315 313 313 313 313 313 313 313 313 312 311 314 312 309 309 308 309 310 309 309 309 309 309 309 310 309 309 309 309 309 309 309 309 310 310 310 311 311 311 311 311 312 313 315 317 321 325 327 329 329 329 329 330 331 331 331 331 332 332 332 331 331 330 328 326 324 321 319 320 321 321 322 325 325 324 327 329 329 328 328 331 332 332
320 321 319 325 332 330 328 321 317 319 317 315 314 314 313 313 313 313 313 312 312 312 312 311 311 314 311 308 308 307 308 308 308 308 308 308 309 309 309 309 308 308 308 307 307 307 308 308 307 308 308 308 309 309 309 309 310 311 312 314 317 321 325 327 328 329 329 330 331 331 331 331 332 332 332 331 331 330 329 327 325 324 321 319 317 318 320 321 323 324 327 329 330 329 329 330 331
319 321 319 326 331 326 323 319 320 319 316 316 313 314 314 313 313 312 314 313 312 311 311 311 311 312 309 307 307 307 307 307 307 308 308 308 308 308 308 308 307 307 307 306 306 306 306 306 306 306 306 306 307 307 307 307 307 308 308 309 310 313 316 320 323 326 327 328 329 330 330 331 331 331 332 332 332 331 330 328 327 326 324 322 321 321 319 318 320 321 323 327 329 330 330 330 331
319 319 319 330 331 323 323 322 321 318 317 316 313 314 313 312 313 311 312 313 312 311 310 311 311 308 307 306 306 306 307 307 307 308 308 307 307 307 307 307 306 306 306 306 306 306 306 306 306 306 306 306 306 306 306 306 306 306 307 307 307 307 309 311 314 318 321 324 325 327 328 329 330 330 331 331 332 331 331 331 329 327 325 325 324 325 322 319 318 317 319 323 327 328 329 330 329
319 322 333 338 329 321 323 324 319 319 324 322 314 314 313 313 313 311 311 312 311 311 310 311 311 308 307 305 305 306 306 306 307 307 307 306 306 306 307 306 305 305 305 305 305 306 306 306 306 306 306 305 304 304 304 304 304 304 305 306 306 306 307 307 308 310 312 315 319 321 323 325 327 328 329 329 330 331 331 332 331 330 329 327 325 325 324 323 323 320 317 320 325 326 325 327 326
318 322 339 333 322 322 321 321 319 321 324 320 314 313 314 312 313 311 310 310 310 311 310 310 310 310 308 305 305 305 305 306 306 306 305 305 305 306 306 305 305 305 305 305 305 306 306 306 306 305 305 304 303 302 302 302 302 302 302 302 303 304 305 306 306 307 307 309 311 314 317 320 322 323 325 326 327 328 329 330 330 330 330 329 328 326 324 324 325 324 319 316 320 323 323 323 324
317 318 332 326 319 323 320 319 319 320 319 317 314 312 313 311 311 311 311 313 310 310 310 310 310 310 308 304 304 304 304 306 305 305 305 305 305 305 305 305 304 305 305 305 306 306 306 306 306 305 304 303 302 302 302 302 301 301 301 301 301 301 302 303 304 305 306 307 307 308 310 313 316 319 321 321 322 323 324 326 327 327 328 329 329 328 326 325 325 325 323 319 316 317 318 319 320
318 317 331 332 324 322 317 319 322 324 319 315 315 311 312 310 311 311 312 314 311 309 310 310 310 311 310 307 306 304 305 305 304 304 304 304 304 304 304 305 305 305 305 306 306 306 306 306 305 305 304 303 302 302 302 301 301 301 301 301 300 300 300 301 301 302 303 305 306 306 307 308 310 313 317 319 320 320 320 321 323 323 323 324 326 326 326 325 326 326 326 324 319 317 316 316 318
319 320 336 337 326 321 317 318 321 323 318 313 313 311 312 310 310 311 310 312 310 308 309 310 309 310 309 308 307 305 304 304 303 304 303 303 303 304 304 305 305 305 305 305 305 305 305 305 304 303 303 302 302 301 301 301 301 301 301 301 301 300 300 300 300 300 301 301 303 304 305 306 307 308 310 314 318 320 320 320 320 320 320 321 322 324 325 326 327 327 327 326 324 322 319 317 316
318 325 341 336 325 320 317 318 319 320 319 314 311 311 313 311 309 310 309 309 309 308 308 308 308 309 308 307 306 304 304 303 303 302 302 303 303 304 304 305 305 305 305 305 305 305 304 303 303 302 302 301 301 301 301 301 301 301 301 301 301 301 300 300 300 300 300 300 301 301 302 304 305 306 306 308 311 316 319 321 320 320 320 321 322 323 323 324 325 326 328 328 326 325 323 320 319
320 333 337 325 321 318 318 321 317 316 318 314 311 311 314 313 308 307 308 307 306 306 305 306 307 307 307 306 304 303 303 302 302 302 302 303 304 304 305 305 305 305 305 304 304 304 303 302 301 301 301 301 301 301 301 301 301 301 301 300 300 300 300 300 300 300 300 300 300 300 300 301 302 303 304 305 306 309 313 317 320 321 321 322 323 324 323 324 325 326 326 326 326 326 326 323 322
321 332 328 321 324 317 314 317 312 313 315 313 311 310 312 314 309 308 310 305 303 305 303 302 304 304 304 304 303 303 303 302 302 302 303 304 304 305 305 305 304 304 304 304 303 302 301 301 301 301 301 301 300 300 300 300 300 300 300 300 300 300 300 300 300 300 299 299 299 299 299 300 300 300 301 302 303 305 306 310 314 318 320 321 322 324 324 324 324 326 326 325 325 326 326 324 322
316 322 322 323 323 314 311 313 312 313 314 312 311 310 311 311 309 309 309 304 303 304 302 301 302 302 303 303 302 302 302 302 302 303 304 304 304 304 304 304 304 303 303 302 301 301 301 300 300 300 300 300 300 300 300 300 300 300 300 299 299 299 299 299 299 299 299 299 299 299 299 299 299 299 299 299 300 301 303 305 307 310 315 318 321 322 324 324 324 325 326 326 325 326 326 326 324
314 317 321 319 314 313 313 313 313 314 313 313 311 310 310 309 309 309 307 307 306 304 305 306 306 305 303 302 302 302 302 302 303 303 303 303 303 303 303 302 302 302 301 300 300 299 300 299 299 299 299 299 299 299 299 299 299 299 299 299 299 299 299 299 299 299 299 298 298 298 298 299 298 299 299 299 299 299 300 301 302 304 307 311 315 318 321 322 323 324 325 326 326 327 327 327 326
314 314 315 313 311 313 314 312 314 313 313 313 310 310 311 309 308 308 308 312 311 306 308 309 308 307 305 303 302 301 301 302 303 303 302 302 302 301 301 300 300 300 299 299 299 298 298 298 298 297 297 297 297 297 297 297 297 298 298 298 298 298 298 298 298 298 298 298 298 297 297 298 298 298 298 298 298 298 298 298 299 300 301 303 307 311 315 318 320 322 324 324 325 326 326 327 327
316 314 310 311 312 312 313 313 313 313 312 311 309 311 310 308 308 308 307 310 310 308 309 307 306 306 305 304 302 301 302 302 302 302 302 301 301 300 300 300 300 300 299 298 298 297 297 296 296 296 296 296 296 296 296 296 296 297 297 297 297 297 297 297 297 297 297 297 297 297 297 297 297 297 297 297 297 297 297 297 297 298 298 299 300 303 307 311 315 318 320 322 323 324 325 325 325
316 316 311 312 312 312 313 312 312 312 312 311 310 311 309 308 310 307 306 307 308 308 308 306 305 304 303 303 302 302 302 302 301 301 301 301 300 300 299 299 299 299 298 297 297 296 296 296 296 295 296 295 295 295 296 296 296 296 296 297 297 297 297 297 297 296 296 296 296 296 296 296 296 296 296 296 296 296 296 297 297 297 297 297 297 298 300 303 307 311 315 318 321 322 323 324 324
315 316 312 312 312 312 312 312 312 312 311 310 310 309 307 309 309 306 305 307 307 307 307 305 304 303 303 302 302 302 301 301 301 300 300 300 299 299 298 298 298 298 297 296 296 295 295 295 295 295 295 295 295 295 295 296 296 296 296 297 297 297 297 297 297 296 296 296 296 296 296 296 296 296 296 296 296 296 296 296 296 296 297 296 296 296 297 298 301 304 308 313 316 319 321 322 323
313 313 312 311 311 311 311 311 312 311 311 310 310 308 306 306 307 306 306 306 306 305 305 304 304 303 302 302 302 301 300 300 300 299 299 299 298 297 297 298 297 297 296 295 295 294 294 294 294 294 294 294 294 294 295 295 296 296 296 296 297 297 297 297 296 296 296 295 295 295 295 295 295 295 296 296 296 296 296 296 296 296 296 296 296 295 295 296 297 299 302 306 310 314 317 319 321
311 311 311 310 311 311 310 310 311 311 310 309 311 311 306 305 308 309 305 304 304 304 303 303 302 302 301 301 300 300 300 299 299 298 298 297 296 296 296 297 296 295 294 294 294 293 294 293 294 294 293 293 293 294 294 295 296 296 296 296 296 297 296 297 296 296 296 295 295 295 295 295 295 295 296 296 296 296 296 296 296 296 296 296 295 295 295 295 295 296 297 300 303 307 312 315 316
310 310 312 310 309 311 310 310 310 310 310 309 311 311 306 305 309 311 306 303 304 303 302 301 301 301 300 300 299 299 299 298 298 297 297 296 295 295 295 295 295 294 293 293 293 293 293 293 293 293 293 293 293 294 294 295 295 295 296 296 296 296 296 296 296 296 295 295 295 295 295 295 295 295 295 295 295 295 295 295 295 295 295 295 295 295 294 294 295 295 295 296 298 300 304 309 311
310 310 313 313 314 314 310 309 309 309 311 309 310 311 310 309 310 309 306 303 302 301 301 300 299 299 299 299 299 299 298 297 297 296 295 295 295 295 294 294 294 293 293 293 293 293 293 292 292 293 292 293 293 293 294 294 295 295 295 295 296 296 296 296 296 295 295 295 295 295 295 295 295 295 295 295 295 295 295 295 295 295 295 295 295 295 294 294 294 295 295 295 296 297 299 302 306
311 309 311 317 320 319 310 308 310 308 311 309 309 314 315 314 310 306 304 302 301 300 300 299 299 299 298 299 299 298 297 296 296 295 295 295 294 294 294 294 294 293 293 293 293 292 292 292 292 292 292 292 293 293 294 294 294 294 295 295 295 296 296 296 295 295 295 295 295 295 295 295 295 294 294 294 294 294 294 294 294 294 294 294 294 294 294 294 294 294 295 295 295 296 297 298 301
314 309 315 320 318 323 315 307 309 310 310 308 309 314 314 315 310 304 303 302 301 299 299 299 298 298 298 298 298 298 297 296 295 295 295 294 294 294 294 294 293 293 293 292 292 292 292 292 292 292 292 292 292 293 293 293 294 294 294 295 295 295 295 295 295 295 295 294 294 294 295 295 295 294 294 294 294 294 294 294 294 294 294 294 293 293 294 294 294 294 294 295 295 295 296 297 297
318 312 323 324 315 322 319 305 306 311 310 307 309 314 313 313 309 304 303 301 301 299 298 298 298 298 298 298 298 298 297 295 294 294 294 294 293 293 293 293 293 293 293 292 292 292 291 291 291 291 291 292 292 292 292 293 293 293 294 295 295 295 295 295 295 294 294 294 294 294 294 294 294 294 294 294 294 294 294 294 294 294 294 294 293 293 293 294 294 294 294 294 295 295 295 296 296
323 316 320 324 317 317 315 307 305 308 310 308 309 313 314 312 306 302 302 300 300 298 297 298 298 298 298 298 298 297 297 295 294 294 294 293 293 293 292 292 293 293 292 292 292 291 291 291 291 291 291 291 291 292 292 292 292 293 294 295 295 295 295 295 295 294 294 294 294 294 294 294 294 294 294 294 294 294 294 294 294 293 293 293 293 293 292 293 294 294 294 294 294 295 295 295 296
326 320 317 319 316 311 312 312 306 305 309 311 310 310 311 311 305 300 301 300 298 297 297 298 297 297 297 298 298 297 297 296 295 294 294 293 293 293 292 292 292 292 292 292 291 291 291 291 291 291 291 291 291 291 291 291 292 293 294 295 295 295 295 295 294 294 293 293 293 294 294 294 294 294 294 294 294 294 294 294 294 294 293 293 292 292 292 292 293 294 294 294 294 295 295 295 295
319 318 316 314 313 310 311 312 308 306 309 310 311 311 309 310 307 301 300 300 298 297 298 298 297 297 297 297 297 297 297 296 296 295 293 293 293 292 292 292 293 292 292 291 291 290 290 291 290 290 291 291 291 291 291 291 292 293 294 294 295 295 294 294 294 293 293 293 293 293 294 294 294 294 294 294 294 294 294 294 294 294 293 293 292 292 291 291 292 293 293 294 294 294 295 295 295
312 313 313 311 311 309 309 309 306 305 307 309 308 309 308 308 308 304 301 299 297 297 298 297 297 296 296 297 297 297 296 296 296 294 293 293 292 292 292 292 293 292 291 291 290 290 290 290 290 290 291 291 290 290 291 292 293 293 294 294 294 294 294 294 293 293 293 293 293 293 294 294 293 293 293 293 293 293 293 293 293 293 293 293 293 292 291 290 291 291 293 293 294 295 294 294 295
308 310 311 310 310 309 308 308 306 304 307 310 308 308 308 308 308 306 301 299 296 296 296 296 296 296 296 296 297 297 297 297 296 293 293 293 292 292 293 293 292 292 291 290 290 290 290 290 290 291 290 290 290 290 291 292 292 292 292 293 293 293 293 293 293 293 293 293 293 293 293 293 293 293 293 292 292 292 293 293 293 293 292 292 292 292 291 291 290 290 292 293 294 295 295 295 295
308 309 310 309 308 308 307 307 306 304 307 311 309 309 309 308 308 306 302 299 297 296 296 297 297 296 296 296 296 297 297 296 295 293 292 292 292 293 293 293 292 291 290 290 290 290 290 290 291 291 290 290 290 290 291 291 291 291 291 291 291 291 292 292 292 292 293 293 293 293 293 293 292 292 292 292 292 292 292 293 293 292 292 292 291 292 291 291 290 290 291 293 295 296 296 295 295
309 308 309 310 309 310 310 308 308 307 306 310 311 308 308 308 307 306 303 300 299 299 299 299 298 297 297 296 296 296 297 296 294 293 292 292 292 293 293 293 292 291 290 290 290 290 290 290 290 290 290 290 290 291 291 291 291 290 290 290 290 291 291 292 292 292 292 292 292 292 292 292 292 292 292 292 292 292 292 293 293 292 292 291 290 291 290 290 290 289 290 293 295 296 296 296 296
310 308 309 312 310 311 312 310 310 309 307 308 309 306 306 306 306 307 304 300 300 301 300 300 299 299 298 297 297 297 296 296 294 293 292 292 292 292 293 293 292 291 290 290 290 290 291 291 291 290 290 290 291 291 291 291 290 290 290 290 290 291 291 291 291 292 292 291 292 292 292 292 291 291 291 291 291 291 292 292 293 292 292 291 290 289 289 290 289 289 290 293 295 296 296 296 297
315 312 310 311 311 310 311 310 308 309 310 308 306 308 309 307 306 307 304 300 299 300 299 298 298 298 298 297 296 296 297 296 295 294 292 292 292 292 293 292 291 290 290 290 290 290 291 291 291 291 291 291 290 290 290 290 290 290 290 291 291 291 291 291 291 291 291 291 291 291 291 291 291 290 290 290 290 290 291 291 292 292 292 291 289 288 289 289 290 290 291 292 294 295 296 297 297
319 318 311 310 311 310 310 310 308 310 314 308 306 314 317 311 307 307 305 302 301 299 297 297 297 297 297 296 296 296 296 296 296 294 293 293 292 293 293 292 291 290 290 290 290 290 291 290 290 290 291 290 290 290 290 290 290 290 290 290 290 290 290 290 290 290 290 290 290 290 291 291 290 290 290 290 290 290 290 290 291 291 291 290 289 288 288 289 290 291 292 292 293 295 296 296 296
316 316 312 311 310 310 310 309 308 313 315 306 305 313 314 310 310 310 309 308 305 301 298 297 296 297 296 296 296 296 296 296 295 293 293 292 292 293 293 292 291 291 290 290 290 290 290 290 290 290 290 290 290 290 290 290 289 289 289 289 289 289 289 289 289 289 290 290 290 290 290 290 290 290 290 290 290 289 290 290 290 290 290 290 289 288 287 288 290 291 292 293 293 294 295 295 294
318 313 311 312 309 309 309 306 307 310 309 305 306 308 307 308 309 309 308 308 307 304 301 298 295 296 296 296 295 295 296 296 294 293 292 292 293 293 292 292 291 290 290 290 290 290 290 290 290 290 290 290 290 289 289 289 289 289 289 289 289 289 289 289 289 289 289 289 289 290 290 290 290 289 289 289 289 289 289 289 289 290 290 290 289 287 286 286 288 289 291 292 293 294 294 294 293
317 309 307 307 306 307 306 304 306 306 305 307 307 305 307 310 309 306 303 304 307 305 305 303 297 295 296 295 295 295 296 296 294 293 293 293 293 293 292 291 291 290 290 290 290 290 290 290 290 290 290 289 289 289 289 289 289 288 288 288 288 288 288 289 289 289 289 289 289 289 289 289 289 289 288 288 288 288 288 289 289 290 290 289 288 287 286 285 285 287 289 290 292 293 294 294 293
309 305 308 309 310 309 306 304 307 308 308 311 309 305 309 314 314 309 304 305 309 307 305 303 299 296 296 295 295 295 295 295 294 293 293 293 293 292 292 291 291 290 290 290 290 290 290 290 290 290 290 289 289 289 289 289 288 288 288 288 288 288 288 288 289 289 289 289 289 289 289 289 289 288 288 287 287 287 288 288 288 289 288 286 285 284 284 285 284 285 287 288 290 292 293 294 294
303 307 312 313 314 311 308 307 308 311 314 315 311 306 308 314 314 311 310 311 312 311 309 306 301 297 296 295 295 295 295 294 293 292 292 292 292 292 292 291 291 290 290 290 290 290 290 290 290 290 289 289 289 289 289 288 288 288 288 288 288 288 288 288 289 289 289 289 289 288 288 288 288 287 287 286 286 286 287 288 288 287 286 284 282 282 283 283 284 284 285 287 289 291 293 294 295
305 313 315 315 316 315 314 312 311 315 318 316 309 305 306 311 312 310 311 309 308 309 311 311 305 297 295 296 295 294 295 294 293 292 292 292 292 292 291 291 290 290 290 290 290 290 290 290 290 290 289 289 289 289 288 288 288 288 288 288 288 288 288 288 288 288 288 288 288 287 287 287 287 286 286 286 285 286 286 287 287 286 284 282 281 281 281 281 282 283 284 286 288 290 291 293 295
309 313 315 317 319 321 321 316 314 318 318 310 304 305 307 308 310 309 309 309 308 305 303 305 303 297 295 296 294 294 294 293 292 292 292 292 291 291 291 291 290 290 290 290 290 290 290 290 290 290 289 289 289 289 289 288 288 288 288 288 288 288 288 288 288 288 287 287 287 286 286 286 286 286 285 285 285 285 286 286 286 284 282 281 280 280 279 280 281 281 283 284 286 288 289 291 294
307 310 317 321 320 321 321 318 317 317 316 307 301 305 310 309 311 310 308 309 304 299 297 298 298 297 298 297 295 294 293 292 292 292 292 292 291 291 291 291 290 290 290 290 290 290 290 290 289 289 289 289 289 289 289 289 288 288 288 288 288 288 288 287 287 287 287 286 286 285 285 285 285 285 285 284 284 285 286 285 284 282 280 279 278 278 279 280 280 281 282 283 285 286 288 290 293
307 311 315 319 321 322 321 320 319 316 315 310 303 307 314 312 312 308 303 299 294 293 294 294 295 297 299 297 295 293 292 292 292 292 292 291 291 291 291 291 290 290 290 290 290 290 290 290 289 289 289 289 289 289 289 289 288 288 288 288 288 287 287 287 287 287 286 286 286 285 285 285 285 285 285 284 284 285 285 284 282 280 279 278 277 277 278 279 280 280 281 282 283 285 287 289 292
307 308 312 316 319 320 318 317 317 312 311 310 306 309 312 309 308 303 297 294 292 291 291 292 294 296 296 295 293 292 292 292 291 291 291 291 291 291 291 291 290 290 290 290 290 290 290 290 289 289 289 289 289 289 289 288 288 288 288 287 287 287 287 287 287 286 286 286 285 285 285 284 284 284 284 284 284 284 284 283 281 278 277 277 276 277 277 278 279 280 280 281 282 284 286 289 291
309 307 313 312 310 315 317 315 312 308 310 312 310 310 309 309 308 303 299 299 297 294 291 291 292 293 293 293 292 292 291 291 292 291 291 291 291 291 291 291 290 290 290 290 290 290 290 290 289 289 289 289 289 289 288 288 288 288 287 287 287 287 287 286 286 286 286 286 285 285 284 284 284 284 284 284 285 284 282 280 279 278 277 276 276 276 277 278 278 279 280 280 281 283 285 288 291
311 312 311 306 305 310 313 314 311 308 310 312 311 310 309 312 310 303 300 301 301 299 294 289 289 289 290 291 291 291 291 291 291 291 291 291 291 291 291 291 291 291 290 290 290 290 290 289 289 289 289 289 289 288 288 288 288 287 287 287 287 286 286 286 286 286 286 285 285 284 284 284 284 284 284 285 285 284 282 279 278 277 276 276 276 276 276 277 277 278 279 280 280 282 284 287 290
307 309 305 305 310 311 309 310 312 312 311 312 313 312 311 314 314 310 307 306 305 303 295 290 291 289 288 289 290 290 290 291 291 291 291 291 291 291 291 291 291 290 290 290 290 290 289 289 289 289 289 289 288 288 288 287 287 287 286 286 286 286 286 286 285 285 285 285 284 284 284 284 284 284 285 285 284 282 281 279 278 276 275 275 275 275 275 275 276 277 279 280 280 281 283 286 289
300 301 301 304 309 311 310 309 311 314 313 312 314 314 313 315 317 316 313 309 309 306 297 292 292 289 288 289 289 289 290 291 291 290 291 291 291 291 291 291 290 290 290 290 290 290 289 289 289 289 289 288 288 287 287 287 286 286 286 286 286 286 285 285 285 285 284 284 284 284 284 284 285 285 285 284 283 281 279 278 277 276 275 275 275 275 275 275 276 277 278 279 279 280 282 285 287
303 303 303 303 304 307 309 307 307 312 312 311 312 313 313 313 314 315 313 309 309 306 300 294 291 289 290 289 289 290 291 290 290 291 291 291 291 290 291 290 290 290 290 290 290 289 289 289 289 289 288 288 287 287 287 287 287 286 286 286 286 286 285 285 285 284 284 284 283 284 284 285 285 286 285 284 282 280 279 277 276 275 274 274 274 274 275 275 276 276 276 277 278 279 281 283 285
306 306 306 305 304 306 309 307 306 308 309 312 313 312 313 310 308 310 311 310 308 303 299 296 291 290 290 290 290 291 290 290 291 291 291 291 290 290 290 290 290 290 290 290 289 289 289 289 289 288 288 287 287 287 287 287 287 287 286 286 285 285 285 285 285 284 284 283 283 284 284 285 286 286 285 283 281 280 278 276 275 275 274 273 273 274 274 275 275 275 275 276 277 278 279 281 284
Wind_Speed
4 3 2 2 1 0 1 1 2 3 4 3 3 1 1 1 2 2 1 2 1 4 12 14 12 15 15 15 18 18 14 6 2 3 3 2 3 8 8 7 5 4 4 4 5 5 6 6 4 2 0 1 1 2 3 4 4 6 5 4 4 5 6 7 8 9 10 10 11 12 12 13 13 14 14 13 13 13 13 12 11 11 10 10 11 11 12 13 14 15 17 18 19 20 21 21 20
4 3 3 2 1 1 1 1 2 3 5 2 2 1 1 2 1 4 6 3 6 13 25 29 26 24 21 20 18 17 17 12 10 9 7 2 1 5 8 8 6 4 4 5 6 7 8 8 6 3 2 3 3 3 5 4 4 4 5 6 5 6 6 6 8 8 9 10 11 11 12 13 14 14 14 14 14 13 14 14 14 15 14 13 13 13 13 13 13 14 16 18 19 20 21 21 21
3 3 2 1 1 1 1 3 2 1 4 1 3 3 1 0 3 6 7 4 17 26 25 21 18 14 11 13 11 10 8 9 11 8 6 4 1 4 8 7 7 5 4 5 6 8 9 9 7 5 3 4 5 5 6 6 5 4 4 5 5 6 6 7 8 8 9 10 11 12 12 14 15 14 14 15 14 14 15 15 15 16 17 17 17 16 15 15 15 15 16 17 19 21 21 21 21
3 3 2 2 3 2 3 4 2 4 3 3 3 4 2 4 6 7 3 5 17 21 13 12 11 10 11 11 7 8 7 7 7 4 5 8 6 5 6 7 6 5 5 5 6 8 9 9 8 6 3 3 5 7 7 7 8 8 7 6 5 5 5 7 8 8 9 10 11 12 12 13 14 13 13 15 15 16 17 16 16 17 17 18 18 18 17 18 18 17 17 17 18 20 21 22 22
2 1 1 2 2 1 3 3 2 4 2 4 2 4 4 5 7 5 2 6 9 12 10 12 7 8 15 11 4 4 5 6 6 7 9 9 6 5 5 5 6 6 6 5 6 6 7 8 8 8 6 4 3 5 7 8 9 10 9 8 8 7 8 8 8 9 10 10 11 12 12 12 13 13 13 14 16 18 19 18 18 18 18 18 19 19 18 18 19 19 19 18 18 20 21 23 23
1 2 2 3 3 2 3 2 2 1 4 5 3 5 5 6 7 5 7 9 8 12 13 13 12 13 14 12 11 7 5 8 8 9 10 7 4 3 3 4 6 6 6 5 6 7 7 8 9 9 9 8 6 5 5 7 9 10 10 10 10 10 10 11 11 11 11 12 12 12 13 13 13 13 14 15 15 18 19 19 19 20 20 19 20 21 20 20 20 21 20 19 19 20 21 22 23
1 3 2 4 3 3 3 3 4 2 2 4 4 4 5 6 9 8 7 7 9 10 13 17 21 18 9 6 10 10 10 9 10 9 8 6 3 1 3 4 5 4 5 6 6 6 7 7 7 8 8 9 9 8 7 6 7 9 10 11 12 11 11 12 12 13 13 14 14 14 14 14 15 16 16 17 16 17 18 19 20 21 21 21 21 21 21 22 22 21 21 20 20 21 22 22 23
2 2 2 3 2 4 4 3 3 2 1 3 3 3 3 6 11 8 3 2 5 6 15 20 16 10 3 6 6 10 13 10 10 8 6 4 1 2 3 3 4 5 8 9 9 9 9 9 9 8 8 8 9 9 9 8 7 7 8 10 12 13 13 13 13 14 14 14 14 15 15 15 16 17 17 18 18 18 18 18 19 21 22 23 24 24 24 24 23 22 22 21 21 22 23 24 24
2 1 1 3 2 3 3 2 0 2 2 2 1 1 1 6 10 6 4 4 7 9 13 11 2 3 8 11 10 11 13 11 9 7 5 2 3 3 3 1 3 6 9 10 11 11 11 12 11 11 11 10 10 10 10 11 10 9 8 7 9 12 13 14 14 15 15 16 16 16 16 16 17 17 18 19 19 20 19 19 19 19 21 23 25 26 26 26 24 23 23 23 22 23 24 25 24
1 1 2 3 3 4 3 1 1 1 2 3 2 2 2 6 7 7 8 5 8 9 7 5 2 12 16 11 10 12 13 11 9 6 4 3 3 2 1 1 3 6 8 9 10 10 11 12 12 13 13 13 12 12 11 11 12 12 12 11 10 9 10 13 15 16 17 18 18 18 18 18 18 18 18 19 19 21 21 21 21 20 20 21 24 25 26 27 27 25 24 24 24 24 25 25 26
0 2 3 4 4 3 2 3 2 2 3 4 3 1 3 8 10 10 10 9 7 9 9 6 9 19 16 7 9 12 13 11 9 6 4 3 2 1 0 2 5 7 7 8 9 9 10 11 12 12 13 13 13 13 12 11 11 11 12 12 13 13 12 11 11 14 17 19 20 20 20 20 20 20 19 20 20 20 21 22 22 22 21 22 23 24 25 26 27 27 26 25 25 26 27 27 27
1 1 3 4 3 3 3 4 3 4 5 4 1 2 4 8 11 9 9 10 8 10 8 4 13 20 10 3 9 12 13 11 9 6 4 4 2 1 1 3 5 6 7 7 7 7 8 9 11 12 13 13 13 14 14 13 13 12 12 12 13 13 14 14 13 12 13 16 19 21 22 22 22 21 22 21 21 20 21 21 22 23 24 24 24 24 25 25 26 27 27 27 27 29 28 28 28
2 2 5 3 2 3 4 5 3 2 4 2 2 2 3 4 8 12 13 10 8 8 3 7 20 16 5 5 11 13 14 11 9 6 5 4 2 1 2 4 5 5 5 5 4 5 6 8 10 11 12 13 14 15 16 16 17 16 16 15 15 14 14 15 15 15 14 14 15 17 20 22 23 23 23 23 23 23 22 22 22 23 23 25 25 24 25 26 27 28 28 28 30 31 30 29 30
3 3 4 3 1 2 4 3 1 2 2 4 2 2 4 3 6 13 14 8 4 6 5 14 21 8 5 9 10 16 15 12 10 7 6 4 3 3 3 4 3 3 3 2 3 4 6 8 10 11 12 13 14 16 16 17 18 18 18 17 17 17 17 16 16 16 16 16 16 16 17 19 22 23 24 23 24 25 25 25 24 24 24 23 24 25 26 28 28 29 29 29 30 31 32 31 30
4 2 5 4 3 2 3 2 2 4 4 3 1 5 8 6 6 7 7 5 5 9 11 17 17 3 8 12 10 20 17 12 11 8 7 5 5 4 4 3 2 1 1 2 3 5 6 8 10 11 13 14 16 17 18 18 19 18 18 18 17 18 18 18 18 18 18 18 18 18 18 18 19 21 23 24 24 25 25 26 27 27 26 24 24 26 27 28 29 29 30 31 31 31 32 32 31
4 3 5 3 2 2 2 2 3 3 4 3 6 9 8 5 6 5 2 5 8 13 11 12 13 5 10 15 13 21 17 13 12 9 9 8 7 6 4 3 1 0 2 2 4 6 7 9 10 12 13 14 17 18 19 19 20 20 20 20 19 18 18 18 18 19 19 20 20 20 20 20 19 20 21 23 25 26 25 26 27 28 28 27 26 26 27 28 28 29 30 31 32 32 32 32 32
4 3 5 3 2 2 3 4 4 4 5 4 6 7 4 2 4 5 4 9 11 13 10 9 12 9 13 17 16 20 16 13 12 10 12 10 9 7 5 3 1 0 2 3 5 6 8 10 11 12 13 16 18 18 19 19 21 22 23 23 22 21 20 19 18 18 19 20 21 22 22 22 22 22 22 23 24 25 27 27 27 27 28 29 27 27 28 28 28 28 29 29 31 33 33 32 32
3 3 4 2 3 3 4 6 7 4 3 5 6 7 8 5 6 10 7 7 12 12 10 10 11 12 17 18 17 18 15 14 14 12 13 12 10 8 6 4 2 2 3 4 5 7 8 10 11 12 15 17 18 19 19 21 22 23 24 24 24 23 22 21 20 20 20 20 21 22 23 24 24 23 23 24 25 25 26 27 28 29 28 28 28 28 28 28 28 28 28 28 31 34 33 33 34
3 3 4 2 4 4 4 6 8 4 3 7 5 7 9 8 12 16 7 4 11 10 8 11 13 16 18 18 18 16 15 15 14 14 14 12 10 9 7 5 3 3 3 4 5 7 8 9 11 13 16 17 18 18 19 20 22 23 23 24 24 24 23 23 22 22 22 22 22 22 22 23 24 25 25 25 26 27 27 28 29 30 30 30 29 29 28 27 28 28 29 29 30 33 33 33 35
1 4 3 4 6 4 4 6 10 7 6 8 6 7 8 10 16 14 9 7 6 6 11 12 15 20 20 19 18 16 16 14 13 13 13 11 10 9 7 6 4 4 4 4 5 6 7 9 11 13 15 16 16 17 18 20 21 22 23 23 23 23 23 23 23 23 23 24 24 24 24 23 24 24 26 27 27 28 29 30 30 31 31 31 32 31 30 28 27 27 28 30 31 32 34 35 35
1 3 3 5 6 4 5 8 8 8 8 8 8 7 6 13 16 13 13 9 4 11 20 17 17 24 23 21 19 16 15 14 14 13 12 11 9 8 6 5 3 2 3 5 6 7 9 10 12 14 15 16 16 17 18 19 20 21 22 23 23 23 24 23 23 23 24 25 26 26 26 26 26 25 25 26 28 29 30 31 32 33 33 32 33 34 33 31 29 27 26 28 29 29 32 35 36
3 1 2 6 8 3 7 10 7 9 10 8 7 7 8 12 12 16 19 10 5 14 23 18 16 23 22 21 20 16 16 15 14 13 11 10 8 7 5 3 2 2 3 5 7 9 11 12 13 14 15 16 17 18 18 19 20 21 22 22 23 23 24 24 24 24 24 25 26 28 29 29 29 29 29 28 27 29 30 31 32 34 35 34 33 34 35 34 32 30 28 27 27 27 28 31 33
2 2 2 5 6 4 8 10 8 9 11 9 8 7 10 10 7 16 22 14 6 9 18 16 15 21 20 19 19 17 17 15 14 13 11 10 8 7 5 3 2 2 3 6 8 10 12 12 13 14 15 16 17 18 19 20 20 21 22 22 23 24 24 25 25 25 25 25 26 28 29 31 31 32 32 31 30 29 29 30 31 33 35 36 35 35 35 35 34 34 33 31 28 26 26 27 30
2 2 2 3 3 3 6 8 8 10 11 10 9 8 10 9 6 12 20 17 9 9 17 17 19 22 20 20 19 18 18 16 15 13 12 11 9 7 5 3 2 2 4 6 8 10 11 11 12 13 15 16 17 18 19 20 20 21 21 22 23 24 25 25 26 26 26 25 25 26 27 29 31 32 33 33 32 31 30 30 30 32 33 35 37 37 36 37 37 36 35 35 34 31 29 28 28
3 1 2 1 2 2 3 5 7 10 10 9 8 5 6 9 7 9 16 17 12 13 19 20 23 24 22 21 20 19 19 17 16 14 13 12 10 7 5 3 2 2 4 6 8 9 9 10 12 13 15 15 17 18 19 19 19 20 21 22 23 24 26 27 27 27 27 26 26 26 26 27 28 30 32 33 34 33 33 32 31 31 32 33 35 37 37 37 38 38 38 37 38 38 36 33 30
0 2 5 3 4 4 4 6 9 11 10 8 6 1 2 8 5 6 14 18 16 18 21 23 25 25 23 22 20 20 19 17 16 15 13 11 9 7 5 3 1 3 5 7 8 8 8 10 11 13 14 15 16 17 17 18 18 19 20 21 22 24 25 27 28 28 28 28 28 28 27 28 28 29 31 33 35 35 35 34 34 33 33 32 33 35 36 37 38 39 39 39 40 41 41 39 36
5 5 7 7 9 8 6 7 9 12 9 8 6 1 1 6 3 5 14 20 21 22 23 24 24 24 24 22 21 19 18 17 15 14 12 10 8 5 3 1 2 4 5 6 6 7 7 9 10 12 14 15 16 16 16 17 18 19 20 21 22 23 25 26 27 28 29 30 30 29 29 29 29 30 31 32 34 36 37 36 36 36 35 34 33 34 35 36 38 38 38 40 40 42 43 43 42
8 7 8 8 8 7 4 4 7 10 5 7 5 1 1 3 2 7 15 22 24 25 25 25 25 24 23 22 21 19 17 16 15 13 11 9 7 4 2 1 2 4 5 5 5 6 7 9 11 12 14 15 15 16 16 17 19 19 20 21 23 24 25 27 28 29 30 31 32 31 31 30 30 31 32 33 35 37 38 39 39 38 37 36 35 35 35 35 37 39 38 38 39 41 43 44 44
6 5 6 8 9 6 2 2 6 8 3 5 3 2 3 5 8 8 13 23 26 26 26 26 26 25 24 24 22 20 18 16 15 13 11 9 7 5 3 1 2 3 4 5 6 7 8 10 11 13 14 14 15 16 17 18 19 19 20 22 24 25 26 27 28 29 30 31 32 33 33 32 32 33 34 35 36 39 40 42 42 41 40 38 36 35 36 36 36 38 39 39 39 40 42 44 45
3 3 3 4 9 5 2 3 3 5 4 6 3 4 7 8 12 9 13 24 27 27 28 28 28 27 26 25 23 21 19 18 16 14 12 10 7 5 3 1 0 2 4 5 7 8 9 10 12 13 14 14 15 16 17 18 19 20 21 23 25 26 27 28 29 29 30 30 32 33 33 34 34 34 34 36 37 39 41 43 45 44 43 41 38 35 36 37 37 38 39 40 41 40 41 42 43
1 1 2 2 4 4 5 2 3 3 4 8 5 4 9 8 11 11 17 25 28 29 30 30 29 29 28 26 25 23 21 19 16 15 13 10 8 5 3 2 1 3 5 6 7 8 9 10 12 13 14 15 15 16 17 18 19 20 22 24 26 27 28 29 30 31 31 32 32 33 34 34 34 33 34 36 38 39 41 43 45 45 45 44 41 37 34 35 37 38 38 39 41 42 42 42 41
3 1 3 3 1 5 9 5 5 4 2 7 6 3 10 9 9 13 20 25 29 29 29 31 31 31 30 28 27 24 22 20 18 16 14 11 8 4 3 2 2 4 5 6 7 8 9 11 13 14 15 16 16 18 18 19 20 21 23 26 27 29 30 30 31 32 32 32 33 33 33 34 34 34 35 38 40 41 42 43 44 44 44 44 43 40 36 35 35 37 38 37 40 42 43 43 41
4 1 3 3 1 4 7 4 3 3 2 4 5 4 8 7 4 11 21 27 30 27 26 30 32 32 32 30 29 26 24 23 21 19 16 12 8 5 4 4 4 5 6 7 7 8 10 12 14 15 16 17 18 19 20 20 22 23 25 28 29 29 29 30 31 32 32 32 32 32 33 33 34 36 38 40 42 44 45 47 47 45 44 43 43 41 38 36 35 35 37 37 38 41 43 44 43
4 2 1 4 3 2 5 5 3 1 3 4 4 5 11 10 3 10 21 27 29 26 27 32 32 33 33 31 30 28 28 26 24 21 18 13 10 7 6 5 5 6 6 7 7 9 11 13 14 16 18 19 20 21 22 22 23 25 27 28 28 28 28 30 31 31 31 31 32 32 33 34 35 36 38 40 43 45 47 48 49 49 47 45 43 42 40 38 36 36 37 36 36 38 41 43 44
3 3 2 4 3 3 5 6 3 2 2 5 4 6 15 16 8 11 21 26 28 29 30 30 30 32 33 32 32 30 30 28 25 22 19 15 11 9 7 7 6 6 6 6 7 9 10 12 15 16 18 20 21 22 23 23 25 27 28 28 27 28 29 30 31 32 32 31 31 32 33 34 35 36 38 40 42 45 47 48 49 50 49 47 44 42 41 39 38 38 38 38 36 37 40 42 43
5 4 4 4 5 6 7 6 4 1 3 7 7 9 14 17 12 11 19 26 28 29 28 26 27 31 32 33 34 32 31 29 26 23 20 16 14 11 9 9 8 7 6 6 7 8 10 12 14 17 19 21 22 23 24 26 29 29 29 29 28 28 29 30 31 31 32 31 31 31 32 33 35 37 38 40 42 44 46 48 48 49 47 46 45 44 42 40 39 38 38 38 37 37 38 40 41
3 2 3 5 5 7 7 5 3 2 2 8 8 9 13 16 15 13 17 22 22 23 24 25 27 30 34 36 36 35 33 30 26 25 22 18 16 13 11 11 9 7 5 5 5 7 9 12 15 18 20 22 23 24 27 30 31 31 30 30 30 29 29 30 30 31 30 30 29 29 31 33 35 37 38 40 43 45 47 48 49 49 47 45 45 44 42 40 39 39 38 38 38 39 38 38 39
2 2 4 5 5 8 9 4 4 0 3 6 5 7 12 15 16 14 12 13 17 25 26 27 30 33 35 36 37 37 34 29 28 28 25 20 18 15 13 12 9 7 5 5 5 7 10 13 16 19 21 22 24 26 28 29 29 29 30 30 30 29 29 30 30 29 29 29 29 30 31 33 35 37 40 42 45 47 48 50 50 49 47 45 44 44 42 40 38 37 37 37 37 39 39 37 37
2 2 2 5 4 5 8 4 4 2 2 5 6 7 12 14 16 16 13 15 21 31 34 34 34 34 36 37 37 38 35 32 32 31 26 22 19 16 15 13 10 8 6 5 6 8 11 14 17 19 21 22 24 27 27 28 28 28 28 29 30 30 29 29 30 29 30 31 32 33 35 37 39 40 41 43 45 46 48 50 50 49 47 44 43 43 41 39 37 35 36 38 37 39 40 38 36
3 3 2 5 4 1 5 4 5 4 2 6 9 11 11 11 15 18 15 19 22 28 33 35 34 35 38 39 38 39 39 37 35 32 28 23 20 17 16 14 10 9 7 6 6 9 12 15 18 19 21 23 25 26 27 27 27 27 28 28 29 29 30 30 31 31 32 34 35 36 39 40 42 43 43 44 46 46 47 49 50 49 47 43 40 40 39 36 33 34 35 37 38 39 41 38 36
4 5 6 6 6 5 6 3 5 5 3 4 8 11 9 7 12 15 7 8 15 19 23 27 33 36 34 33 36 39 40 39 36 33 29 24 21 19 17 14 11 9 8 7 7 10 12 15 18 20 22 23 24 25 26 27 27 28 29 29 30 30 31 31 33 34 35 37 38 39 40 41 44 46 46 47 48 49 49 49 50 50 48 44 40 39 38 34 31 32 35 37 39 39 41 40 37
5 5 9 10 8 7 6 5 6 5 4 4 6 7 7 2 6 11 5 2 9 11 14 22 30 32 31 32 34 37 38 37 36 33 29 24 21 20 18 15 12 10 8 8 8 10 13 15 18 19 21 21 23 24 25 26 27 28 30 31 31 32 32 33 34 36 38 39 40 41 41 42 44 46 46 47 49 51 51 50 49 48 47 44 41 40 39 36 32 32 33 36 40 39 39 41 41
3 4 7 7 5 4 4 4 4 2 3 2 4 2 9 3 3 10 8 6 9 8 10 18 25 27 31 36 35 36 38 37 35 31 27 24 22 21 18 15 12 10 8 8 9 10 12 15 17 18 19 21 22 23 24 26 27 28 29 30 31 32 33 34 34 36 38 40 42 43 44 44 45 47 47 47 49 50 52 51 50 48 47 44 41 40 40 40 37 34 31 32 37 39 38 41 43
3 4 5 5 2 2 2 2 0 3 3 3 3 4 9 9 5 7 5 6 11 11 12 15 20 27 33 36 34 35 39 38 36 32 27 25 23 21 17 15 12 9 8 8 8 10 12 14 16 17 19 20 21 22 23 25 26 27 28 30 30 31 33 34 35 37 39 41 43 44 45 46 46 47 48 48 49 51 51 52 51 50 48 45 42 40 40 41 40 38 34 32 33 37 39 41 43
5 4 6 5 3 2 2 2 2 2 3 5 4 7 5 10 6 2 4 4 11 14 16 15 16 27 33 32 33 35 37 38 36 33 29 26 24 21 17 15 12 9 8 8 8 10 12 14 15 16 18 19 20 21 22 23 25 27 28 30 31 32 33 35 37 39 40 42 44 45 46 47 47 47 48 49 50 50 51 51 51 51 49 45 43 40 38 38 40 41 39 37 35 35 37 39 43
3 5 5 4 4 3 3 2 1 2 3 9 6 8 4 9 4 2 3 3 9 12 14 12 14 25 30 29 32 35 36 37 35 32 29 27 24 21 18 15 11 8 7 7 8 10 12 14 15 16 17 18 20 21 22 23 25 27 29 30 32 33 35 37 39 40 42 43 45 47 47 48 48 49 49 50 51 50 50 50 51 50 48 44 43 42 40 37 39 41 42 41 38 37 36 36 40
4 6 4 4 4 4 4 2 3 3 5 9 7 12 8 7 3 5 3 5 7 8 9 9 11 19 25 29 33 35 37 38 36 32 28 26 23 20 18 14 10 8 7 8 8 10 12 14 15 16 16 18 20 20 22 24 25 27 29 30 32 34 36 38 40 42 43 45 47 48 49 49 50 50 51 51 52 51 51 50 50 49 46 42 41 42 41 38 38 39 42 44 42 40 38 35 37
4 4 4 4 4 3 4 4 4 1 6 6 3 8 9 8 5 4 5 5 5 7 7 8 9 13 21 29 32 35 37 38 36 32 29 27 24 20 17 13 10 8 7 8 9 10 12 14 16 17 16 18 20 21 22 24 26 27 29 31 33 34 37 38 41 43 44 45 47 48 49 50 51 51 52 53 53 52 51 51 50 49 45 42 40 39 39 38 37 37 39 43 45 44 40 36 35
4 4 4 3 4 4 4 3 1 3 7 3 2 3 5 12 10 8 10 10 9 8 9 12 10 10 18 27 31 34 37 37 35 32 30 27 24 20 16 12 10 8 8 8 9 11 13 14 16 17 17 18 20 21 23 24 26 28 29 31 33 35 37 38 40 42 43 44 46 48 49 51 52 53 52 53 53 52 51 51 50 49 46 43 40 37 38 40 39 36 36 40 44 45 41 37 34
5 4 4 3 1 1 4 4 2 5 6 3 4 4 5 9 7 11 15 13 12 9 12 18 16 14 17 23 29 33 36 37 35 33 30 27 23 19 16 12 10 8 8 8 10 12 14 15 16 17 17 18 20 22 23 25 26 28 30 32 34 36 37 39 40 41 42 43 45 47 49 50 52 53 52 53 53 52 51 49 49 49 46 44 43 38 39 43 40 35 34 37 40 42 39 37 34
4 4 4 4 4 3 4 4 4 6 7 4 3 3 4 5 2 7 9 9 8 9 13 16 16 16 17 20 28 33 36 37 35 32 30 27 23 19 16 12 10 8 8 9 11 13 15 16 16 17 18 18 21 22 24 26 27 29 31 33 34 36 37 39 40 41 42 44 45 47 48 48 50 51 52 52 52 51 50 48 48 48 46 45 44 41 40 39 36 34 37 37 38 38 37 36 34
1 2 4 2 4 5 3 3 4 1 6 6 3 4 6 4 3 5 2 6 6 6 9 9 9 12 15 20 28 33 37 37 35 33 30 27 23 19 15 12 9 9 9 10 12 14 15 16 16 17 18 19 21 23 24 26 28 30 32 33 35 36 37 39 40 42 42 44 46 47 48 48 48 49 50 51 51 51 49 48 46 46 45 44 42 40 39 37 33 37 42 40 38 38 37 35 33
2 2 3 4 4 5 2 4 2 4 3 6 2 6 9 5 4 4 1 5 6 5 6 5 7 11 16 23 29 33 38 38 36 34 30 26 22 18 15 12 9 9 10 11 13 14 15 16 17 17 18 20 21 23 25 27 29 31 32 33 35 36 38 40 41 43 44 45 46 47 48 48 47 47 48 49 51 50 48 47 46 46 45 43 40 39 38 36 36 41 43 40 40 41 38 35 33
4 3 5 4 2 4 4 1 3 3 3 6 3 9 14 10 6 1 1 5 9 8 5 4 6 11 17 23 28 33 37 37 35 32 28 25 21 18 15 11 10 10 11 12 12 14 15 16 17 18 19 20 21 23 25 27 29 31 32 34 35 37 39 40 42 44 45 46 47 46 47 47 46 46 47 48 50 50 48 46 46 46 45 42 40 37 36 37 40 42 40 38 41 42 40 37 34
5 3 2 2 3 1 2 2 2 1 3 7 6 9 14 12 5 2 3 7 10 9 6 5 7 13 19 23 28 32 35 35 34 32 28 25 21 18 15 11 11 11 11 11 11 13 14 15 16 17 18 19 21 23 25 27 29 31 33 35 36 38 40 41 43 44 45 46 46 45 45 45 46 45 45 47 48 48 49 47 47 46 44 41 39 37 36 38 39 37 37 38 40 41 41 40 35
3 1 1 1 3 3 3 3 3 3 3 7 7 9 14 9 5 6 8 9 10 9 8 8 11 17 23 26 29 33 36 37 36 32 28 24 20 18 15 12 11 11 10 11 11 12 13 15 15 16 18 19 21 24 26 27 29 31 33 36 37 39 40 42 43 44 45 45 44 44 44 44 45 45 44 45 46 46 47 47 48 46 44 41 38 37 36 36 35 36 40 43 44 43 42 41 38
3 2 2 1 1 1 1 2 2 3 4 5 4 9 15 7 6 7 8 8 10 11 10 9 13 22 27 28 31 35 39 39 36 31 26 23 20 17 14 13 11 10 10 10 10 12 13 14 15 16 18 20 22 23 25 28 30 33 35 37 39 40 42 43 44 44 44 44 43 44 44 44 45 44 44 44 45 45 45 47 47 45 45 43 39 37 36 35 35 37 42 47 48 46 42 41 41
6 6 7 7 6 3 2 5 3 3 4 5 2 7 18 8 4 5 6 6 8 9 9 9 15 24 28 30 34 37 40 39 35 29 26 23 20 16 15 13 11 9 9 9 10 11 12 13 14 16 18 20 22 24 26 29 32 34 36 38 40 42 43 44 45 45 44 43 43 43 44 45 45 45 44 44 44 45 45 46 47 45 45 43 39 38 36 35 36 37 43 48 45 41 39 39 42
Wind_Direction
52 93 117 121 255 259 284 188 89 6 65 87 326 22 167 199 186 162 236 273 31 44 77 89 90 97 100 102 107 89 66 63 87 102 139 184 6 348 353 357 352 353 345 339 324 324 329 342 355 347 173 219 221 232 278 302 287 280 285 284 296 307 311 320 322 315 311 309 303 300 296 294 294 292 288 286 287 290 291 288 284 285 288 286 281 281 280 278 278 277 275 274 272 272 269 267 264
39 99 125 119 307 275 239 59 82 353 51 78 292 177 248 334 122 177 206 203 117 102 92 90 86 88 96 99 96 78 59 58 80 95 96 108 236 336 356 359 350 344 337 326 315 320 323 329 336 323 265 237 222 227 252 281 296 300 295 288 288 284 288 303 310 311 312 309 303 301 295 292 289 288 289 290 289 290 293 295 297 298 298 294 289 288 286 281 280 280 280 280 277 275 273 270 267
45 103 133 167 56 100 137 44 87 74 71 117 268 257 318 72 205 211 208 128 113 114 100 90 81 75 91 85 63 64 71 71 84 94 68 58 92 358 360 1 358 353 337 324 322 325 327 333 337 330 292 246 238 232 237 250 266 282 284 288 288 281 289 292 291 295 303 304 303 305 302 297 291 288 291 291 286 282 284 291 298 299 301 300 297 296 294 290 286 284 284 284 281 277 275 274 271
70 97 97 179 133 91 70 47 128 117 112 183 254 266 256 185 212 226 208 87 126 129 110 97 75 60 80 82 67 70 79 75 73 97 69 54 60 28 5 2 353 340 327 323 329 326 328 334 336 336 325 265 243 238 237 239 247 254 256 265 272 268 280 286 286 287 287 285 289 299 301 301 298 295 296 292 285 280 279 284 289 290 294 296 294 293 294 293 289 287 287 286 282 278 275 274 272
83 96 58 179 162 103 89 74 113 100 168 183 166 255 247 200 212 230 80 71 147 157 135 114 96 83 77 68 78 83 91 99 89 98 88 69 63 35 5 349 326 310 308 317 329 326 328 330 331 335 337 328 281 253 244 241 243 245 246 249 254 256 261 265 272 277 276 272 272 279 282 286 290 290 287 286 286 287 287 287 287 287 288 288 288 288 289 289 287 287 288 285 282 279 275 272 271
104 147 84 122 128 123 117 103 121 107 216 166 143 246 240 207 209 182 101 76 109 137 136 119 121 114 83 70 74 86 121 120 115 106 97 89 73 33 352 325 307 298 308 329 335 334 339 336 335 337 341 344 339 322 285 262 254 250 249 246 247 252 258 258 259 263 266 270 270 270 271 272 273 275 273 273 277 283 287 286 285 285 285 286 287 289 289 289 288 286 284 283 280 278 276 272 269
122 161 118 115 89 57 106 127 168 172 201 168 160 213 220 216 196 155 118 90 92 111 126 120 120 110 89 106 79 84 122 131 125 113 110 108 96 32 325 322 318 326 4 15 12 13 12 7 3 357 355 356 355 353 343 319 289 269 261 256 254 253 256 259 260 262 263 265 266 269 272 273 270 269 269 268 268 270 275 280 284 285 285 287 288 287 288 291 292 287 281 279 278 277 274 271 267
129 170 150 126 41 31 94 110 184 175 164 214 191 194 220 205 182 151 118 123 105 105 126 125 116 91 87 159 120 107 123 131 125 121 128 124 136 278 301 321 351 31 52 55 55 53 51 47 44 37 29 22 16 12 6 358 341 315 286 271 265 262 261 260 260 262 265 266 267 268 270 272 272 270 269 269 268 266 267 275 282 285 287 289 288 285 284 287 289 286 282 277 274 275 273 270 267
120 171 167 109 68 47 59 53 200 209 267 266 229 228 167 176 179 142 85 75 116 128 141 148 97 92 127 125 125 129 128 129 131 134 142 159 234 258 279 325 30 67 74 73 71 65 63 59 56 52 48 44 37 31 24 18 11 2 346 317 289 276 270 267 266 266 267 269 271 271 271 272 271 269 268 270 271 270 269 271 273 277 283 287 288 286 286 286 285 283 282 279 273 270 271 270 267
72 69 143 95 80 61 40 12 267 235 260 282 272 254 139 168 161 122 115 99 128 130 146 183 139 134 132 120 130 140 139 140 146 156 174 211 230 233 285 64 76 90 88 82 77 69 66 60 56 51 46 42 38 35 29 24 19 13 8 0 347 324 297 282 275 272 271 271 271 271 271 272 271 270 270 271 273 271 271 272 270 268 271 276 281 283 284 286 285 284 280 278 275 270 268 268 267
277 43 108 83 75 105 166 202 253 259 275 309 305 236 140 150 124 105 116 120 136 127 131 141 127 133 125 119 147 150 151 153 164 178 197 203 189 185 12 98 104 100 95 88 80 74 66 56 49 42 36 32 27 24 20 16 12 7 3 360 357 352 343 325 301 284 276 274 273 273 272 272 272 272 271 271 273 272 273 275 273 268 266 268 272 277 281 284 285 285 281 276 274 272 271 270 268
193 23 79 86 108 169 183 167 206 260 312 333 22 103 120 139 123 118 127 126 143 142 147 170 149 141 117 122 155 156 160 165 180 189 193 187 192 199 144 121 113 104 98 89 80 72 60 47 38 31 26 24 20 15 11 7 2 357 351 347 345 343 343 341 334 320 300 285 277 274 274 274 273 273 273 272 272 273 274 275 273 271 268 266 269 274 278 281 282 283 282 275 271 271 271 271 270
118 145 83 91 140 146 140 142 191 277 330 290 188 91 100 143 134 139 135 125 151 156 179 180 157 144 113 151 159 166 170 178 186 185 187 191 205 181 148 133 116 111 99 87 72 56 41 30 24 20 19 16 12 6 2 359 355 351 346 340 336 332 329 328 329 329 324 313 298 285 278 274 273 272 273 272 270 270 272 272 271 272 271 268 268 270 273 276 279 281 282 277 271 269 268 269 269
91 156 94 107 88 109 136 132 181 153 252 253 227 102 104 108 134 143 134 120 168 153 126 158 158 144 135 149 166 178 177 183 185 182 189 195 194 171 157 142 122 121 89 71 40 27 18 13 9 8 6 3 359 356 353 349 347 346 344 339 334 329 323 319 316 316 316 316 314 306 295 283 276 273 272 272 270 269 269 270 269 270 272 272 269 268 270 272 275 277 280 279 275 270 267 267 267
89 124 95 105 35 50 148 149 150 141 201 240 140 130 113 98 136 156 142 138 176 149 136 159 168 181 173 170 182 182 179 183 184 185 187 182 183 179 173 165 144 132 42 16 8 4 5 2 358 356 353 352 350 348 345 343 343 343 343 340 336 330 324 318 313 309 306 305 305 304 302 296 287 278 273 271 271 271 270 268 268 267 269 272 273 271 271 270 270 272 275 277 278 276 271 268 266
103 108 79 83 58 95 151 152 134 134 226 220 141 137 106 90 153 161 172 161 155 152 157 174 186 222 188 178 172 174 177 180 183 184 180 177 183 186 184 177 174 133 13 4 2 356 356 353 348 349 348 348 347 345 346 345 345 344 343 341 337 333 327 321 315 309 304 301 298 296 295 294 292 288 281 274 271 271 272 270 269 268 268 269 272 273 272 270 269 269 270 272 276 277 273 269 267
119 99 64 72 118 146 170 169 170 168 231 224 165 169 122 86 166 149 151 156 146 157 172 179 193 200 176 170 163 168 174 175 179 178 178 186 190 189 187 180 198 274 352 349 355 352 348 345 344 347 347 347 346 348 349 347 347 344 343 342 340 336 331 326 319 315 309 305 301 296 294 291 289 288 287 284 278 273 272 272 272 271 270 269 269 269 270 270 270 268 268 269 271 272 271 269 266
107 113 75 101 153 162 175 182 194 168 200 212 189 189 168 157 167 149 133 129 130 140 155 157 172 173 165 165 162 167 172 177 181 182 189 200 203 203 207 213 236 269 326 336 343 343 341 342 345 347 347 347 348 350 349 348 347 346 345 343 342 339 336 331 325 322 318 314 310 304 301 297 295 291 288 287 285 283 279 276 275 274 274 273 272 269 269 270 270 268 267 266 267 268 268 268 266
86 107 83 185 195 190 198 185 188 172 191 200 180 177 183 184 167 158 152 137 133 124 130 143 153 156 160 165 166 172 175 179 184 192 204 210 213 218 225 234 259 278 299 318 330 334 335 339 342 345 347 349 349 349 349 348 348 347 346 344 343 341 338 336 332 328 325 323 320 316 311 306 303 299 295 291 287 286 285 283 280 277 276 276 275 273 271 272 271 268 265 263 264 265 264 266 268
83 94 84 228 209 191 217 193 187 199 203 196 180 169 182 179 169 168 169 167 169 167 160 158 165 164 164 169 171 175 175 180 188 198 210 211 215 221 226 235 252 273 293 312 324 328 329 336 340 344 347 349 349 349 349 349 350 349 347 346 344 343 342 339 337 334 331 329 327 325 322 318 313 308 304 300 295 289 285 284 283 282 279 277 277 276 273 273 273 270 266 263 263 264 262 263 266
335 107 132 206 181 163 201 189 192 208 207 206 182 155 167 177 181 183 163 155 240 221 192 188 192 180 172 173 174 176 179 186 195 201 205 205 210 212 217 225 239 278 315 330 333 333 335 342 345 347 348 348 348 349 351 350 351 350 347 348 347 346 345 343 341 338 336 334 332 331 328 326 323 320 315 310 306 301 294 289 286 285 284 281 280 279 277 275 275 274 272 268 268 269 267 265 267
349 80 133 164 154 158 193 179 186 203 203 209 180 159 173 175 192 193 175 173 239 227 209 201 202 190 178 177 176 176 185 195 198 198 199 200 203 203 208 210 231 306 330 337 338 341 344 347 349 350 349 348 348 349 352 353 352 350 348 348 348 347 346 345 344 342 340 338 336 334 332 331 329 327 326 323 318 313 307 301 294 289 288 287 284 282 280 278 277 276 276 275 274 274 273 273 276
360 330 59 153 165 164 180 182 194 199 193 197 188 180 174 163 199 202 192 208 252 229 206 193 189 186 181 181 180 182 190 197 196 193 195 199 203 205 207 210 240 294 325 339 343 346 348 350 350 349 348 346 347 349 351 352 351 350 349 348 347 347 346 345 344 343 343 341 339 336 334 333 332 330 329 328 326 322 317 311 305 299 294 291 289 286 284 282 279 276 275 275 275 275 277 277 280
127 293 20 139 195 173 175 196 206 203 202 205 197 183 180 176 195 200 202 223 249 208 189 186 183 181 182 184 185 190 195 196 193 192 197 202 208 208 207 212 250 303 333 347 348 347 349 349 347 344 345 345 345 347 349 351 350 349 349 347 346 345 345 344 343 343 343 342 340 338 335 333 332 331 330 329 328 326 323 318 312 306 301 296 293 291 288 284 281 279 275 273 272 272 274 277 278
114 272 327 99 207 203 201 221 213 212 214 209 194 176 196 201 195 197 209 221 223 194 184 184 182 181 185 189 192 195 195 194 193 194 198 205 208 204 203 212 250 324 349 357 354 351 350 346 343 341 342 343 344 347 349 348 347 347 347 345 345 344 342 341 341 341 341 341 341 339 337 334 331 330 329 329 328 326 324 322 318 313 306 301 297 294 292 288 284 281 278 274 272 272 271 273 276
110 279 306 308 273 284 262 235 221 217 214 201 190 150 184 187 193 225 214 209 200 187 184 183 184 187 188 191 196 196 196 195 193 197 200 203 204 203 205 216 284 349 0 3 1 355 351 344 340 340 340 341 342 344 345 344 343 343 343 343 343 341 340 339 337 337 338 339 339 340 338 335 332 329 328 327 326 326 324 323 321 318 312 306 300 296 294 293 289 284 281 278 275 273 271 270 273
309 305 299 291 289 298 272 248 230 212 213 213 203 310 195 163 168 246 209 194 189 184 183 186 188 190 190 192 195 194 197 197 195 199 200 201 198 199 202 202 356 13 12 8 9 359 351 343 338 339 338 337 338 340 340 338 338 338 339 341 340 339 338 336 335 334 334 335 336 337 336 334 332 331 329 327 326 325 325 324 323 321 317 312 305 298 294 293 293 291 286 281 278 275 273 272 273
318 321 309 300 316 316 270 259 216 193 212 224 197 22 260 163 225 242 206 189 187 187 186 189 191 192 192 193 194 193 196 197 198 199 199 202 196 187 177 104 37 27 23 18 14 2 352 342 338 338 335 334 336 336 336 335 336 338 340 341 340 339 338 336 335 334 334 334 335 336 336 335 335 334 333 331 329 327 326 325 324 323 321 317 309 301 295 292 291 292 291 287 282 278 275 273 274
327 360 334 312 352 359 308 321 192 185 212 205 164 327 254 211 234 236 200 189 187 189 192 192 193 194 195 195 195 194 195 198 197 198 199 198 193 185 172 115 48 25 24 20 10 359 351 343 339 337 335 335 336 336 336 336 338 341 343 342 341 339 337 336 334 334 334 334 335 336 337 338 339 339 337 335 333 330 328 327 326 324 322 320 314 304 296 292 290 289 290 290 287 282 277 274 273
323 31 30 329 355 352 296 20 169 182 197 176 125 291 253 231 236 222 189 189 185 189 196 196 196 195 197 197 197 196 195 199 198 198 201 198 197 194 187 183 13 8 14 10 4 358 350 344 338 336 336 336 337 337 337 338 340 343 342 341 339 337 335 333 332 332 332 332 333 334 336 337 339 339 338 337 335 333 331 328 327 325 322 320 316 308 298 292 290 289 289 290 289 288 283 279 276
334 2 44 12 351 290 280 331 158 157 204 186 141 267 260 260 251 220 195 195 191 193 198 198 199 198 199 199 198 199 198 199 200 200 203 202 201 200 206 226 305 350 1 0 359 358 349 344 339 338 339 339 339 339 339 341 342 342 340 339 338 336 334 332 331 331 332 332 332 333 333 334 335 335 335 336 335 333 331 328 326 324 322 319 314 310 301 292 288 287 289 290 288 288 288 285 281
25 354 315 338 340 274 302 303 188 183 204 180 157 251 268 276 265 220 198 198 198 200 203 202 203 201 201 202 201 201 200 200 201 202 206 206 204 208 235 260 319 341 351 356 358 356 348 345 344 343 343 342 342 342 342 341 341 341 340 338 337 335 333 331 330 330 331 331 331 331 331 330 330 330 332 333 332 331 329 327 325 323 321 318 313 308 302 295 290 285 285 288 289 288 288 288 286
4 65 253 277 269 295 318 324 215 202 150 178 195 246 272 284 274 208 197 201 204 206 209 207 207 206 204 205 204 201 202 202 203 206 209 207 207 218 241 273 314 333 343 352 355 354 350 349 348 348 347 344 344 343 342 341 340 340 337 335 334 333 331 329 329 329 330 330 330 330 329 328 327 328 329 330 329 328 328 326 325 324 322 318 314 308 301 295 293 289 283 282 287 288 287 287 288
324 13 280 255 244 271 297 310 328 117 163 223 237 247 260 269 254 197 201 204 206 211 216 214 211 209 207 207 206 204 204 207 208 209 210 208 210 219 240 274 301 323 336 344 352 354 354 353 351 350 347 344 344 342 340 339 338 336 334 332 331 330 329 328 329 329 330 330 329 329 328 327 326 326 327 326 326 326 327 326 325 324 323 320 316 309 302 293 289 289 287 282 281 285 286 287 287
252 271 286 288 265 228 242 270 310 78 211 235 231 251 263 270 260 217 214 209 210 217 221 220 216 212 211 209 207 207 208 211 212 211 210 209 212 220 238 267 290 314 328 339 352 357 355 353 352 349 344 342 341 339 336 334 333 333 331 331 330 329 329 330 330 330 330 329 328 326 325 325 325 325 325 325 326 326 326 326 325 323 322 320 315 308 302 295 287 284 286 287 283 280 282 285 288
206 225 219 262 275 259 242 241 250 195 258 252 232 242 264 273 268 236 221 213 215 225 228 226 222 217 214 212 211 209 211 213 212 211 210 211 216 220 236 260 282 305 320 335 350 354 352 350 349 346 342 340 338 334 332 332 332 331 330 330 329 330 331 330 329 327 326 326 326 324 324 324 325 326 327 328 327 327 327 326 325 323 320 316 313 307 301 294 288 283 282 285 287 282 278 280 286
167 179 219 247 251 272 273 255 262 159 216 262 235 233 259 266 269 256 227 216 218 228 233 230 225 221 217 215 214 212 214 215 211 210 212 213 217 222 236 256 276 295 305 322 342 349 348 347 346 344 342 339 336 334 334 334 333 332 332 332 332 333 332 328 325 324 323 324 324 324 324 324 326 327 328 330 329 329 329 328 326 323 320 315 311 307 301 292 286 284 281 281 284 285 280 277 282
158 194 241 270 232 257 277 280 310 117 180 267 243 234 257 258 268 264 217 202 220 223 225 228 225 224 222 219 217 215 215 213 209 210 212 213 218 223 234 250 269 280 284 301 328 344 344 344 344 343 342 339 336 335 335 334 333 333 334 334 334 333 331 328 325 325 325 325 325 324 325 325 326 328 330 331 330 330 329 327 326 323 318 314 309 305 301 294 285 282 282 281 281 283 281 277 279
158 173 206 279 247 266 291 306 340 4 171 271 276 261 260 257 266 264 217 202 227 226 225 228 225 223 224 221 218 216 214 210 208 210 211 213 218 222 232 245 259 266 274 295 321 338 340 342 344 343 342 339 337 335 334 333 332 332 332 332 331 329 328 326 324 325 325 326 327 327 327 328 327 328 329 329 328 328 327 325 324 322 317 312 307 303 299 294 286 281 281 280 280 281 279 277 276
183 179 192 264 270 296 284 302 341 326 235 268 288 278 263 253 258 264 239 219 233 236 233 234 230 229 228 225 222 217 213 210 208 209 211 213 215 220 231 242 253 262 272 291 313 329 335 340 343 342 341 338 336 334 332 331 329 328 328 326 326 324 324 323 322 324 325 326 327 327 327 326 326 327 327 328 327 326 326 325 323 321 316 310 303 299 296 294 288 283 280 278 277 277 276 274 272
246 205 202 241 264 243 238 290 339 322 307 313 319 298 269 230 239 259 262 227 242 243 237 237 234 234 234 230 226 221 216 213 211 210 211 213 214 219 230 238 248 260 270 287 307 324 334 340 341 341 340 337 335 332 330 329 327 325 323 320 320 319 319 320 320 321 322 324 323 323 323 323 324 326 327 328 327 326 326 326 325 321 315 308 300 293 289 290 290 285 281 277 274 273 273 272 270
297 230 209 226 247 254 265 324 352 346 328 342 8 323 278 189 220 255 283 276 255 242 234 239 235 233 232 230 227 221 218 216 215 214 213 212 214 219 228 235 244 259 272 289 307 324 334 339 340 339 338 335 333 331 329 327 325 323 321 320 320 320 320 321 320 320 321 322 322 322 322 322 323 324 325 326 325 325 326 327 326 320 314 305 297 289 281 280 281 279 278 277 274 271 269 270 269
301 242 197 205 220 263 288 344 5 299 265 290 63 323 274 276 188 247 259 260 262 249 236 242 237 231 229 228 226 220 216 215 213 213 212 210 213 220 228 234 244 260 275 289 309 324 332 337 338 336 335 333 331 330 328 326 324 322 321 320 321 322 322 322 322 322 322 322 322 322 322 322 322 322 323 324 323 323 324 325 325 321 314 304 295 288 279 273 270 269 272 275 273 269 267 267 268
243 228 134 129 146 236 239 87 357 247 271 279 160 168 274 281 239 248 267 261 270 268 254 248 235 230 230 227 225 220 216 214 210 209 209 209 215 221 228 234 244 260 275 290 309 321 326 332 333 332 332 331 329 328 327 325 322 320 320 319 319 320 320 320 321 321 322 322 321 320 321 321 321 322 322 322 322 323 323 324 325 322 315 306 296 288 279 273 270 267 265 268 269 267 264 264 265
243 195 113 103 118 164 143 100 264 290 354 289 204 148 265 278 249 295 360 262 264 267 259 255 234 229 230 226 223 220 216 213 211 211 211 212 216 221 227 234 245 261 275 291 306 315 321 325 328 330 328 326 326 325 324 323 321 320 319 319 318 319 319 319 320 320 321 321 319 319 319 319 320 321 321 321 322 323 323 323 323 321 317 309 301 293 284 275 271 269 266 267 268 266 263 262 261
208 131 92 61 65 68 67 64 338 31 330 271 228 155 222 275 233 138 32 247 248 257 257 259 243 233 230 224 221 219 214 211 211 213 212 214 216 220 225 231 245 264 274 289 302 309 315 319 322 326 324 321 322 322 323 323 321 320 319 319 318 319 319 319 319 319 320 319 319 318 318 319 320 320 321 322 323 323 322 321 320 320 316 309 302 296 290 282 273 270 268 267 267 264 263 263 260
120 94 52 23 31 46 48 43 62 49 279 270 231 174 188 276 250 161 183 216 219 239 258 266 251 234 225 221 220 216 211 209 209 209 209 212 216 219 224 231 244 261 271 285 297 304 311 314 317 320 320 318 319 321 322 322 322 321 319 319 319 319 320 320 320 319 320 319 318 318 319 319 319 321 321 321 323 323 321 319 318 316 312 305 299 294 292 290 280 273 271 267 264 262 263 265 262
97 75 47 8 336 13 20 355 46 56 257 273 239 176 186 243 249 188 229 252 225 226 253 262 250 229 218 218 219 214 210 208 207 207 208 210 215 219 223 231 243 255 267 281 291 298 306 310 312 317 320 317 318 320 321 321 321 320 319 319 319 320 321 321 321 320 320 320 319 319 319 319 319 320 321 321 322 322 320 318 316 314 309 302 298 293 291 292 286 278 275 270 264 261 263 266 265
89 88 77 38 334 354 346 307 55 226 244 250 122 136 216 244 247 241 246 257 251 232 233 249 256 237 220 217 215 212 208 206 205 206 208 211 215 218 222 231 242 252 266 277 289 297 303 308 310 316 319 317 317 318 318 319 319 318 318 318 319 320 321 321 321 320 320 320 319 319 318 318 319 319 319 319 320 321 319 317 315 312 307 301 299 293 285 288 290 283 279 275 268 263 265 266 265
148 145 128 131 109 339 282 267 269 270 266 233 128 110 271 271 262 237 235 245 257 257 249 255 261 251 235 224 215 210 206 205 206 207 208 211 213 216 222 232 241 254 270 281 291 297 302 307 310 314 317 315 314 315 315 316 316 317 317 318 320 321 321 321 321 320 320 320 318 317 317 316 316 317 317 317 318 318 317 315 313 311 306 302 300 293 283 285 288 283 280 279 272 267 267 266 265
177 163 137 151 152 184 239 239 250 287 302 271 158 136 250 270 261 216 234 262 274 281 272 268 265 252 241 226 212 206 204 204 206 207 208 210 212 216 224 234 245 260 275 286 294 298 302 306 309 312 315 314 313 313 315 315 316 317 318 320 321 322 321 321 320 320 320 319 317 316 315 315 315 315 315 316 316 316 315 314 311 308 305 301 297 293 290 288 282 277 277 276 273 271 267 265 266
214 131 113 176 183 172 207 239 220 295 318 283 205 207 229 236 233 198 239 297 281 287 284 271 251 230 218 210 205 203 203 203 204 206 208 209 211 218 227 237 249 265 279 289 295 298 302 306 310 313 314 314 314 315 316 317 318 319 320 321 322 322 322 320 319 320 319 318 317 316 315 315 314 314 314 315 315 314 313 312 309 305 302 298 293 290 290 289 281 275 275 274 273 272 266 262 265
168 130 179 216 183 135 143 283 334 70 295 274 262 268 275 307 286 202 153 299 274 282 280 237 212 204 201 204 203 202 202 203 204 206 207 209 212 219 229 238 250 268 282 290 296 299 304 309 312 315 315 316 318 318 318 319 320 321 321 322 323 322 322 321 319 319 319 319 318 317 316 315 315 315 314 314 313 312 311 308 306 303 299 295 290 286 285 284 278 275 276 275 272 271 265 260 260
128 178 215 197 133 96 108 275 343 46 260 271 288 280 283 297 296 259 29 274 258 257 242 207 206 201 204 208 204 202 202 202 205 207 208 210 214 221 228 239 255 269 282 289 295 300 306 312 315 317 319 319 321 320 320 321 321 323 323 324 325 324 323 321 320 320 320 320 319 318 316 316 316 317 315 313 312 311 310 306 303 301 298 293 287 282 280 278 276 276 278 277 273 271 266 260 258
125 186 214 126 147 155 101 160 244 210 246 271 284 289 281 270 254 241 234 231 240 243 209 191 211 210 211 210 204 202 201 202 205 206 208 211 214 222 229 239 255 268 281 288 296 303 309 316 318 321 323 323 324 323 322 324 324 325 327 327 327 326 324 323 322 322 322 321 320 318 317 317 317 317 315 313 311 309 308 306 303 301 297 292 286 280 278 278 278 278 276 275 274 272 267 261 258
83 140 344 48 171 175 161 173 187 177 225 270 295 307 287 260 191 198 219 212 223 229 204 200 213 214 213 208 203 201 200 202 206 205 207 212 216 223 229 239 253 265 278 288 299 308 314 318 321 325 326 325 325 324 324 326 327 328 328 328 328 326 326 325 324 323 322 321 321 320 320 319 318 318 315 313 311 309 306 305 303 300 296 292 285 279 278 278 277 274 270 268 269 270 266 261 259
152 188 208 223 186 138 217 220 162 166 222 254 283 290 278 260 150 189 210 202 217 219 205 206 217 218 215 209 204 202 202 204 206 206 208 213 217 223 230 240 251 263 276 289 302 311 317 321 324 326 325 324 324 324 326 327 329 330 330 329 328 328 327 325 324 323 322 322 322 322 322 320 319 319 317 314 313 311 307 304 302 298 295 292 285 278 276 275 274 272 271 267 266 269 270 267 263
180 195 196 197 187 151 242 252 213 177 224 224 168 271 271 261 139 177 189 192 220 216 198 205 220 220 215 211 208 205 204 205 205 206 210 213 218 225 232 242 252 262 277 292 302 312 318 320 323 323 322 324 326 327 328 330 330 330 330 330 330 329 328 325 323 322 322 324 324 324 323 322 321 321 319 316 314 312 309 304 300 296 293 291 286 278 274 273 273 271 272 273 272 272 271 266 262